Location: Bremen
(53.0793°N, 8.8017°E)
Time: 11:47:38
(UTC+01:00)

Vanguard 1 Rocket - Pass Details

Date: 07 December 2021
Orbit: 651 x 4224 km, 34.3° (Epoch: 17 January)

Event Time Altitude Azimuth Distance (km) Brightness Sun altitude
Rises 01:14:03 0° 199° (SSW) 4,108 - -57.6°
Reaches altitude 10° 01:17:30 10° 181° (S) 3,581 - -57.4°
Maximum altitude 01:23:37 19° 140° (SE) 3,690 - -56.9°
Exits shadow 01:28:49 15° 115° (ESE) 4,602 10.9 -56.5°
Drops below altitude 10° 01:32:24 10° 103° (ESE) 5,420 11.4 -56.3°
Sets 01:39:39 0° 90° (E) 7,171 12.2 -55.6°
